| time (UTC) | temp C | wind direction | speed KPH | gust KPH | rain 1hr cm | rain 24hr cm | rain mn cm | humidity % | barometer mb |
| 20260507093345 | 10 | 300 | 0.0 | 8.0 | 0.00 | 0.00 | 0.00 | 78 | 1013.7 |
| 20260507092345 | 10 | 302 | 0.0 | 8.0 | 0.00 | 0.00 | 0.00 | 79 | 1013.7 |
| 20260507091825 | 10 | 302 | 0.0 | 6.4 | 0.00 | 0.00 | 0.00 | 79 | 1013.6 |
| 20260507090345 | 10 | 302 | 0.0 | 6.4 | 0.00 | 0.00 | 0.00 | 79 | 1013.5 |
| 20260507085825 | 10 | 302 | 1.6 | 8.0 | 0.00 | 0.00 | 0.00 | 78 | 1013.4 |
| 20260507084830 | 10 | 300 | 0.0 | 9.7 | 0.00 | 0.00 | 0.00 | 80 | 1013.4 |
| 20260507083344 | 10 | 302 | 0.0 | 8.0 | 0.00 | 0.00 | 0.00 | 80 | 1013.2 |
| 20260507082344 | 10 | 302 | 3.2 | 6.4 | 0.00 | 0.00 | 0.00 | 80 | 1013.2 |
| 20260507081344 | 10 | 302 | 0.0 | 8.0 | 0.00 | 0.00 | 0.00 | 80 | 1013.0 |
| 20260507080343 | 10 | 302 | 0.0 | 6.4 | 0.00 | 0.00 | 0.00 | 80 | 1013.0 |
| 20260507075343 | 9 | 302 | 4.8 | 8.0 | 0.00 | 0.00 | 0.00 | 80 | 1013.0 |
| 20260507074343 | 9 | 302 | 0.0 | 4.8 | 0.00 | 0.00 | 0.00 | 81 | 1012.8 |
| 20260507073343 | 9 | 302 | 0.0 | 6.4 | 0.00 | 0.00 | 0.00 | 81 | 1012.6 |
| 20260507072338 | 9 | 302 | 0.0 | 8.0 | 0.00 | 0.00 | 0.00 | 81 | 1012.6 |
| 20260507072254 | 9 | 302 | 6.4 | 11.3 | 0.00 | 0.00 | 0.00 | 82 | 1012.4 |
| 20260507070338 | 9 | 302 | 0.0 | 8.0 | 0.00 | 0.00 | 0.00 | 83 | 1012.3 |
| 20260507065333 | 9 | 302 | 1.6 | 6.4 | 0.00 | 0.00 | 0.00 | 83 | 1012.3 |
| 20260507064332 | 9 | 302 | 4.8 | 11.3 | 0.00 | 0.00 | 0.00 | 83 | 1012.2 |
| 20260507063332 | 9 | 303 | 0.0 | 6.4 | 0.00 | 0.00 | 0.00 | 84 | 1012.2 |
| 20260507062332 | 9 | 303 | 0.0 | 6.4 | 0.00 | 0.00 | 0.00 | 85 | 1012.0 |
| 20260507062258 | 8 | 302 | 1.6 | 6.4 | 0.00 | 0.00 | 0.00 | 85 | 1011.9 |
| 20260507060817 | 8 | 302 | 0.0 | 0.0 | 0.00 | 0.00 | 0.00 | 87 | 1011.8 |
| 20260507055330 | 8 | 302 | 0.0 | 0.0 | 0.00 | 0.00 | 0.00 | 88 | 1011.7 |
| 20260507054806 | 8 | 302 | 0.0 | 0.0 | 0.00 | 0.00 | 0.00 | 88 | 1011.6 |
| 20260507053335 | 8 | 302 | 0.0 | 0.0 | 0.00 | 0.00 | 0.00 | 88 | 1011.5 |
| 20260507052334 | 8 | 302 | 0.0 | 0.0 | 0.00 | 0.00 | 0.00 | 88 | 1011.3 |
| 20260507051817 | 8 | 302 | 0.0 | 0.0 | 0.00 | 0.00 | 0.00 | 87 | 1011.3 |
| 20260507050812 | 8 | 302 | 0.0 | 0.0 | 0.00 | 0.00 | 0.00 | 89 | 1011.2 |
| 20260507045331 | 8 | 303 | 0.0 | 0.0 | 0.00 | 0.00 | 0.00 | 85 | 1011.0 |
| 20260507044331 | 9 | 302 | 0.0 | 0.0 | 0.00 | 0.00 | 0.00 | 84 | 1011.0 |
| 20260507043331 | 9 | 303 | 0.0 | 0.0 | 0.00 | 0.00 | 0.00 | 83 | 1010.9 |
| 20260507042331 | 9 | 303 | 0.0 | 0.0 | 0.00 | 0.00 | 0.00 | 83 | 1010.7 |
| 20260507041331 | 9 | 303 | 0.0 | 0.0 | 0.00 | 0.00 | 0.00 | 83 | 1010.7 |
| 20260507040332 | 9 | 303 | 0.0 | 0.0 | 0.00 | 0.00 | 0.00 | 83 | 1010.5 |
| 20260507035331 | 9 | 302 | 0.0 | 0.0 | 0.00 | 0.00 | 0.00 | 83 | 1010.4 |
| 20260507034332 | 9 | 302 | 0.0 | 0.0 | 0.00 | 0.00 | 0.00 | 84 | 1010.4 |
| 20260507033331 | 9 | 302 | 0.0 | 0.0 | 0.00 | 0.00 | 0.00 | 84 | 1010.3 |
| 20260507032819 | 9 | 302 | 0.0 | 0.0 | 0.00 | 0.00 | 0.00 | 83 | 1010.3 |
| 20260507031330 | 9 | 302 | 0.0 | 0.0 | 0.00 | 0.00 | 0.00 | 83 | 1010.2 |
| 20260507030334 | 9 | 302 | 0.0 | 0.0 | 0.00 | 0.00 | 0.00 | 83 | 1010.1 |
| 20260507025332 | 9 | 302 | 0.0 | 0.0 | 0.00 | 0.00 | 0.00 | 83 | 1010.1 |
| 20260507024330 | 9 | 302 | 0.0 | 0.0 | 0.00 | 0.00 | 0.00 | 83 | 1010.1 |
| 20260507023813 | 9 | 302 | 0.0 | 0.0 | 0.00 | 0.00 | 0.00 | 83 | 1010.0 |
| 20260507022325 | 9 | 302 | 0.0 | 3.2 | 0.00 | 0.00 | 0.00 | 83 | 1010.0 |
| 20260507021808 | 9 | 302 | 1.6 | 6.4 | 0.00 | 0.00 | 0.00 | 83 | 1009.8 |
| 20260507020324 | 9 | 303 | 1.6 | 8.0 | 0.00 | 0.00 | 0.00 | 83 | 1009.7 |
| 20260507015322 | 9 | 303 | 0.0 | 8.0 | 0.00 | 0.00 | 0.00 | 83 | 1009.5 |
| 20260507014322 | 9 | 303 | 1.6 | 11.3 | 0.00 | 0.00 | 0.00 | 83 | 1009.5 |
| 20260507013320 | 9 | 303 | 3.2 | 9.7 | 0.00 | 0.00 | 0.00 | 83 | 1009.6 |
| 20260507012317 | 9 | 303 | 0.0 | 0.0 | 0.00 | 0.00 | 0.00 | 83 | 1009.6 |
| 20260507011318 | 9 | 303 | 0.0 | 0.0 | 0.00 | 0.00 | 0.00 | 83 | 1009.5 |
| 20260507010316 | 9 | 303 | 0.0 | 8.0 | 0.00 | 0.00 | 0.00 | 83 | 1009.4 |
| 20260507005316 | 9 | 303 | 0.0 | 8.0 | 0.00 | 0.00 | 0.00 | 84 | 1009.3 |
| 20260507004804 | 9 | 303 | 0.0 | 0.0 | 0.00 | 0.00 | 0.00 | 84 | 1009.2 |
| 20260507003311 | 9 | 303 | 1.6 | 8.0 | 0.00 | 0.00 | 0.00 | 84 | 1009.2 |
| 20260507002312 | 9 | 303 | 0.0 | 0.0 | 0.00 | 0.00 | 0.00 | 84 | 1009.2 |
| 20260507001310 | 9 | 303 | 0.0 | 0.0 | 0.00 | 0.00 | 0.00 | 84 | 1009.3 |
| 20260507000308 | 9 | 303 | 0.0 | 0.0 | 0.00 | 0.00 | 0.00 | 84 | 1009.2 |
| 20260506235309 | 9 | 303 | 0.0 | 4.8 | 0.00 | 0.00 | 0.00 | 84 | 1009.2 |
| 20260506234742 | 9 | 303 | 0.0 | 8.0 | 0.00 | 0.00 | 0.00 | 84 | 1009.2 |
| 20260506233304 | 9 | 303 | 0.0 | 6.4 | 0.00 | 0.00 | 0.00 | 84 | 1009.1 |
| 20260506232306 | 9 | 303 | 0.0 | 4.8 | 0.00 | 0.00 | 0.00 | 85 | 1009.1 |
| 20260506231302 | 9 | 303 | 0.0 | 0.0 | 0.00 | 0.00 | 0.00 | 84 | 1009.0 |
| 20260506230305 | 9 | 303 | 0.0 | 8.0 | 0.00 | 0.00 | 0.00 | 84 | 1009.1 |
| 20260506225746 | 9 | 303 | 1.6 | 4.8 | 0.00 | 0.00 | 0.00 | 84 | 1009.0 |
| 20260506224302 | 9 | 303 | 0.0 | 9.7 | 0.00 | 0.00 | 0.00 | 83 | 1009.0 |
| 20260506224210 | 9 | 314 | 1.6 | 9.7 | 0.00 | 0.00 | 0.00 | 84 | 1009.0 |
| 20260506222305 | 9 | 314 | 0.0 | 11.3 | 0.00 | 0.00 | 0.00 | 84 | 1008.9 |
| 20260506221302 | 9 | 316 | 4.8 | 17.7 | 0.00 | 0.00 | 0.00 | 84 | 1008.7 |
| 20260506220302 | 9 | 312 | 3.2 | 8.0 | 0.00 | 0.00 | 0.00 | 84 | 1008.7 |
| 20260506215746 | 9 | 312 | 0.0 | 0.0 | 0.00 | 0.00 | 0.00 | 84 | 1008.6 |
| 20260506214302 | 9 | 312 | 0.0 | 0.0 | 0.00 | 0.00 | 0.00 | 84 | 1008.5 |
| 20260506213303 | 9 | 312 | 0.0 | 1.6 | 0.00 | 0.00 | 0.00 | 84 | 1008.6 |
| 20260506212302 | 10 | 312 | 0.0 | 0.0 | 0.00 | 0.00 | 0.00 | 84 | 1008.5 |
| 20260506211302 | 10 | 312 | 0.0 | 0.0 | 0.00 | 0.00 | 0.00 | 84 | 1008.4 |
| 20260506210302 | 10 | 312 | 0.0 | 0.0 | 0.00 | 0.00 | 0.00 | 84 | 1008.4 |
| 20260506205740 | 10 | 312 | 0.0 | 9.7 | 0.00 | 0.00 | 0.00 | 84 | 1008.3 |
| 20260506204302 | 10 | 313 | 0.0 | 11.3 | 0.00 | 0.00 | 0.00 | 84 | 1008.3 |
| 20260506203301 | 10 | 320 | 0.0 | 8.0 | 0.00 | 0.00 | 0.00 | 85 | 1008.2 |
| 20260506202305 | 10 | 324 | 3.2 | 11.3 | 0.00 | 0.00 | 0.00 | 85 | 1008.1 |
| 20260506201303 | 10 | 326 | 0.0 | 9.7 | 0.00 | 0.00 | 0.00 | 85 | 1008.1 |
| 20260506200302 | 10 | 327 | 1.6 | 9.7 | 0.00 | 0.00 | 0.00 | 85 | 1007.9 |
| 20260506195305 | 10 | 303 | 0.0 | 0.0 | 0.00 | 0.00 | 0.00 | 85 | 1007.9 |
| 20260506194302 | 11 | 303 | 0.0 | 0.0 | 0.00 | 0.00 | 0.00 | 84 | 1007.6 |
| 20260506193738 | 11 | 303 | 0.0 | 0.0 | 0.00 | 0.00 | 0.00 | 84 | 1007.6 |
| 20260506192305 | 11 | 303 | 0.0 | 8.0 | 0.00 | 0.00 | 0.00 | 83 | 1007.4 |
| 20260506191301 | 11 | 302 | 0.0 | 0.0 | 0.00 | 0.00 | 0.00 | 83 | 1007.2 |
| 20260506190302 | 11 | 302 | 0.0 | 0.0 | 0.00 | 0.00 | 0.00 | 83 | 1007.0 |
| 20260506185306 | 11 | 302 | 0.0 | 0.0 | 0.00 | 0.00 | 0.00 | 83 | 1006.9 |
| 20260506184304 | 11 | 302 | 0.0 | 0.0 | 0.00 | 0.00 | 0.00 | 83 | 1006.7 |
| 20260506183303 | 11 | 302 | 0.0 | 0.0 | 0.00 | 0.00 | 0.00 | 83 | 1006.7 |
| 20260506182306 | 11 | 302 | 0.0 | 6.4 | 0.00 | 0.00 | 0.00 | 84 | 1006.5 |
| 20260506181302 | 11 | 302 | 0.0 | 0.0 | 0.00 | 0.00 | 0.00 | 84 | 1006.3 |
| 20260506180301 | 11 | 302 | 0.0 | 0.0 | 0.00 | 0.00 | 0.00 | 84 | 1006.2 |
| 20260506175306 | 11 | 302 | 0.0 | 9.7 | 0.00 | 0.00 | 0.00 | 84 | 1006.2 |
| 20260506174304 | 11 | 298 | 3.2 | 11.3 | 0.00 | 0.00 | 0.00 | 84 | 1006.2 |
| 20260506173303 | 11 | 298 | 0.0 | 8.0 | 0.00 | 0.00 | 0.00 | 84 | 1006.1 |
| 20260506172750 | 11 | 298 | 3.2 | 9.7 | 0.00 | 0.00 | 0.00 | 84 | 1006.2 |
| 20260506171303 | 11 | 298 | 0.0 | 9.7 | 0.00 | 0.00 | 0.00 | 84 | 1006.0 |
| 20260506170740 | 11 | 298 | 0.0 | 9.7 | 0.00 | 0.00 | 0.00 | 85 | 1005.9 |
| 20260506165755 | 11 | 298 | 1.6 | 8.0 | 0.00 | 0.00 | 0.00 | 85 | 1005.9 |
| 20260506164301 | 11 | 298 | 0.0 | 4.8 | 0.00 | 0.00 | 0.00 | 85 | 1005.9 |
| 20260506163259 | 12 | 299 | 0.0 | 11.3 | 0.00 | 0.00 | 0.00 | 85 | 1005.9 |
| 20260506162254 | 12 | 307 | 4.8 | 14.5 | 0.00 | 0.00 | 0.00 | 85 | 1005.8 |
| 20260506161254 | 12 | 275 | 6.4 | 16.1 | 0.00 | 0.00 | 0.00 | 84 | 1005.7 |
| 20260506160729 | 12 | 314 | 0.0 | 8.0 | 0.00 | 0.00 | 0.00 | 86 | 1005.7 |
| 20260506155250 | 12 | 314 | 3.2 | 17.7 | 0.00 | 0.00 | 0.00 | 86 | 1005.6 |
| 20260506154250 | 12 | 303 | 0.0 | 9.7 | 0.00 | 0.00 | 0.00 | 89 | 1005.6 |
| 20260506153248 | 12 | 317 | 0.0 | 8.0 | 0.03 | 0.00 | 0.00 | 88 | 1005.5 |
| 20260506152732 | 12 | 320 | 0.0 | 9.7 | 0.03 | 0.00 | 0.00 | 87 | 1005.5 |
| 20260506151243 | 13 | 321 | 0.0 | 14.5 | 0.05 | 0.00 | 0.00 | 85 | 1005.4 |
| 20260506150244 | 13 | 305 | 6.4 | 11.3 | 0.08 | 0.00 | 0.00 | 85 | 1005.2 |
| 20260506145242 | 13 | 303 | 0.0 | 9.7 | 0.08 | 0.00 | 0.00 | 87 | 1005.0 |
| 20260506144242 | 13 | 303 | 1.6 | 11.3 | 0.08 | 0.00 | 0.00 | 86 | 1004.9 |
| 20260506143240 | 13 | 310 | 1.6 | 19.3 | 0.05 | 0.00 | 0.00 | 88 | 1004.7 |
| 20260506142237 | 13 | 288 | 8.0 | 22.5 | 0.05 | 0.00 | 0.00 | 88 | 1004.6 |
| 20260506141239 | 13 | 292 | 3.2 | 19.3 | 0.05 | 0.00 | 0.00 | 87 | 1004.4 |
| 20260506141155 | 14 | 292 | 3.2 | 14.5 | 0.00 | 0.00 | 0.00 | 82 | 1004.3 |
| 20260506135234 | 14 | 233 | 8.0 | 14.5 | 0.00 | 0.00 | 0.00 | 79 | 1004.3 |
| 20260506134720 | 14 | 193 | 6.4 | 14.5 | 0.03 | 0.00 | 0.00 | 80 | 1004.4 |
| 20260506133232 | 14 | 269 | 0.0 | 8.0 | 0.03 | 0.00 | 0.00 | 84 | 1004.5 |
| 20260506132237 | 13 | 269 | 1.6 | 16.1 | 0.05 | 0.00 | 0.00 | 83 | 1004.6 |
| 20260506131703 | 13 | 203 | 8.0 | 16.1 | 0.05 | 0.00 | 0.00 | 82 | 1004.6 |
| 20260506130231 | 13 | 258 | 0.0 | 16.1 | 0.05 | 0.00 | 0.00 | 83 | 1004.5 |
| 20260506125232 | 13 | 182 | 0.0 | 20.9 | 0.05 | 0.00 | 0.00 | 83 | 1004.4 |
| 20260506124711 | 14 | 152 | 4.8 | 16.1 | 0.03 | 0.00 | 0.00 | 81 | 1004.4 |
| 20260506123231 | 14 | 200 | 0.0 | 9.7 | 0.03 | 0.00 | 0.00 | 79 | 1004.3 |
| 20260506122231 | 15 | 154 | 0.0 | 16.1 | 0.00 | 0.00 | 0.00 | 76 | 1004.2 |
| 20260506121712 | 15 | 234 | 3.2 | 16.1 | 0.00 | 0.00 | 0.00 | 75 | 1004.2 |
| 20260506120232 | 15 | 197 | 3.2 | 11.3 | 0.00 | 0.00 | 0.00 | 77 | 1004.2 |
| 20260506115231 | 14 | 219 | 6.4 | 14.5 | 0.00 | 0.00 | 0.00 | 79 | 1004.3 |
| 20260506114231 | 15 | 257 | 4.8 | 14.5 | 0.00 | 0.00 | 0.00 | 79 | 1004.3 |
| 20260506113231 | 14 | 200 | 9.7 | 19.3 | 0.00 | 0.00 | 0.00 | 78 | 1004.3 |
| 20260506112231 | 14 | 243 | 4.8 | 17.7 | 0.00 | 0.00 | 0.00 | 79 | 1004.4 |
| 20260506111231 | 14 | 172 | 6.4 | 16.1 | 0.00 | 0.00 | 0.00 | 80 | 1004.3 |
| 20260506110231 | 13 | 141 | 0.0 | 19.3 | 0.00 | 0.00 | 0.00 | 84 | 1004.4 |
| 20260506105231 | 13 | 233 | 9.7 | 19.3 | 0.00 | 0.00 | 0.00 | 83 | 1004.6 |
| 20260506104231 | 14 | 158 | 0.0 | 11.3 | 0.00 | 0.00 | 0.00 | 79 | 1004.6 |
| 20260506103231 | 14 | 235 | 3.2 | 11.3 | 0.00 | 0.00 | 0.00 | 78 | 1004.5 |
| 20260506102232 | 15 | 223 | 0.0 | 14.5 | 0.00 | 0.00 | 0.00 | 76 | 1004.5 |
| 20260506101231 | 15 | 276 | 6.4 | 16.1 | 0.00 | 0.00 | 0.00 | 75 | 1004.5 |
| 20260506100231 | 14 | 195 | 6.4 | 14.5 | 0.00 | 0.00 | 0.00 | 79 | 1004.6 |
| 20260506095230 | 13 | 248 | 3.2 | 14.5 | 0.00 | 0.00 | 0.00 | 80 | 1004.5 |
| 20260506094722 | 13 | 257 | 3.2 | 11.3 | 0.00 | 0.00 | 0.00 | 80 | 1004.5 |